K5IDL Weather Reports


time (UTC)temp
F
wind
direction
speed
knots
gust
knots
rain 1hr
in
rain 24hr
in
rain mn
in
humidity
%
barometer
mb
20260506113916 55 262 0.9 0.9 0.00 0.00 0.00 83 1013.4
20260506113413 55 11 0.9 0.9 0.00 0.00 0.00 82 1013.0
20260506113132 55 77 1.7 2.6 0.00 0.00 0.00 81 1013.4
20260506112909 55 308 0.9 1.7 0.00 0.00 0.00 82 1013.1
20260506112407 55 30 0.0 0.9 0.00 0.00 0.00 81 1013.0
20260506112157 55 115 0.9 5.2 0.00 0.00 0.00 80 1013.3
20260506111904 55 131 2.6 5.2 0.00 0.00 0.00 81 1013.3
20260506111402 55 352 0.9 2.6 0.00 0.00 0.00 81 1012.9
20260506111120 55 68 0.9 2.6 0.00 0.00 0.00 81 1013.2
20260506110859 55 293 0.9 0.9 0.00 0.00 0.00 81 1013.1
20260506110356 56 108 0.0 0.9 0.00 0.00 0.00 79 1012.8
20260506110248 56 39 0.9 2.6 0.00 0.00 0.00 78 1013.0
20260506105853 56 16 0.9 0.9 0.00 0.00 0.00 78 1012.9
20260506105349 56 91 2.6 5.2 0.00 0.00 0.00 77 1012.9
20260506105211 56 343 0.9 1.7 0.00 0.00 0.00 77 1013.0
20260506104847 56 268 0.0 0.9 0.00 0.00 0.00 77 1012.6
20260506104344 56 24 0.9 0.9 0.00 0.00 0.00 76 1012.5
20260506104256 56 26 0.9 1.7 0.00 0.00 0.00 76 1012.8
20260506103837 56 51 0.0 0.0 0.00 0.00 0.00 76 1012.6
20260506103333 56 296 0.0 0.9 0.00 0.00 0.00 76 1012.3
20260506103159 56 341 0.9 1.7 0.00 0.00 0.00 75 1012.4
20260506102831 56 329 0.9 0.9 0.00 0.00 0.00 75 1012.3
20260506102329 56 301 0.9 0.9 0.00 0.00 0.00 75 1011.9
20260506102121 57 17 0.9 1.7 0.00 0.00 0.00 74 1012.2
20260506101826 57 334 0.9 1.7 0.00 0.00 0.00 74 1011.9
20260506101321 56 344 0.0 0.0 0.00 0.00 0.00 75 1011.8
20260506101227 57 327 0.9 3.5 0.00 0.00 0.00 74 1012.0
20260506100820 57 308 0.0 0.0 0.00 0.00 0.00 74 1011.6
20260506100318 57 330 0.0 0.9 0.00 0.00 0.00 75 1011.5
20260506100213 57 2 0.0 1.7 0.00 0.00 0.00 75 1011.9
20260506095816 57 356 0.0 0.9 0.00 0.00 0.00 75 1011.7
20260506095313 57 245 0.9 0.9 0.00 0.00 0.00 74 1011.5
20260506095239 57 342 0.9 1.7 0.00 0.00 0.00 74 1011.7
20260506094810 57 49 0.9 0.9 0.00 0.00 0.00 74 1011.2
20260506094308 57 340 0.9 1.7 0.00 0.00 0.00 74 1011.2
20260506094156 57 26 0.9 1.7 0.00 0.00 0.00 74 1011.8
20260506093806 57 78 0.0 0.9 0.00 0.00 0.00 74 1011.5
20260506093303 58 345 0.0 0.0 0.00 0.00 0.00 73 1011.3
20260506093222 58 28 0.0 0.9 0.00 0.00 0.00 73 1011.5
20260506092801 58 36 0.9 0.9 0.00 0.00 0.00 73 1011.2
20260506092258 58 323 0.9 0.9 0.00 0.00 0.00 73 1011.3
20260506092144 58 12 0.9 1.7 0.00 0.00 0.00 73 1011.5
20260506091755 58 323 0.0 0.9 0.00 0.00 0.00 73 1011.2
20260506091253 58 341 0.0 0.9 0.00 0.00 0.00 73 1011.0
20260506091210 58 340 0.0 0.9 0.00 0.00 0.00 73 1011.3
20260506090751 59 348 0.0 0.0 0.00 0.00 0.00 73 1010.9
20260506090247 59 296 0.9 0.9 0.00 0.00 0.00 73 1010.9
20260506090236 59 1 0.9 0.9 0.00 0.00 0.00 74 1011.1
20260506085744 59 353 0.9 0.9 0.00 0.00 0.00 74 1010.9
20260506085240 59 359 0.0 0.9 0.00 0.00 0.00 74 1010.8
20260506085159 59 309 0.0 0.9 0.00 0.00 0.00 74 1011.2
20260506084737 59 296 0.9 0.9 0.00 0.00 0.00 74 1011.0
20260506084233 58 68 0.0 0.0 0.00 0.00 0.00 75 1010.9
20260506084224 58 38 0.9 1.7 0.00 0.00 0.00 74 1011.1
20260506083730 59 115 0.9 1.7 0.00 0.00 0.00 74 1010.9
20260506083228 59 104 0.9 2.6 0.00 0.00 0.00 74 1010.7
20260506083146 59 42 0.0 1.7 0.00 0.00 0.00 74 1011.0
20260506082725 59 62 0.0 0.0 0.00 0.00 0.00 74 1010.7
20260506082221 59 355 0.0 0.9 0.00 0.00 0.00 74 1010.8
20260506082212 59 113 0.9 2.6 0.00 0.00 0.00 74 1011.1
20260506081719 59 35 0.9 0.9 0.00 0.00 0.00 74 1010.9
20260506081216 59 346 0.0 0.9 0.00 0.00 0.00 74 1010.6
20260506081134 59 327 0.0 1.7 0.00 0.00 0.00 74 1010.7
20260506080714 59 132 0.0 0.0 0.00 0.00 0.00 74 1010.4
20260506080303 58 347 0.9 1.7 0.00 0.00 0.00 75 1010.6
20260506080210 58 72 0.9 0.9 0.00 0.00 0.00 75 1010.6
20260506073214 59 340 0.9 2.6 0.00 0.00 0.00 75 1010.7
20260506073154 59 342 0.0 0.0 0.00 0.00 0.00 75 1010.1
20260506072651 59 354 1.7 2.6 0.00 0.00 0.00 75 1010.6
20260506072148 59 23 0.9 1.7 0.00 0.00 0.00 75 1010.9
20260506072137 59 330 0.0 0.9 0.00 0.00 0.00 75 1010.9
20260506071646 59 347 0.0 0.0 0.00 0.00 0.00 75 1010.5
20260506071202 59 32 0.9 1.7 0.00 0.00 0.00 76 1011.0
20260506071144 59 333 0.9 1.7 0.00 0.00 0.00 75 1010.7
20260506070640 59 292 0.0 0.0 0.00 0.00 0.00 76 1010.6
20260506070137 59 305 1.7 1.7 0.00 0.00 0.00 75 1010.7
20260506070125 59 346 0.0 1.7 0.00 0.00 0.00 76 1010.9
20260506062204 60 338 0.0 0.9 0.00 0.00 0.00 76 1010.9
20260506062115 61 323 0.0 0.9 0.00 0.00 0.00 76 1010.6
20260506061610 60 5 0.9 0.9 0.00 0.00 0.00 76 1010.6
20260506061126 60 339 0.0 0.9 0.00 0.00 0.00 76 1010.9
20260506061108 60 16 0.0 0.9 0.00 0.00 0.00 76 1010.6
20260506060607 60 355 0.0 0.9 0.00 0.00 0.00 76 1010.7
20260506060152 61 262 0.0 1.7 0.00 0.00 0.00 76 1011.0
20260506051154 62 307 0.9 1.7 0.00 0.00 0.00 77 1010.9
20260506051035 62 345 0.9 0.9 0.00 0.00 0.00 77 1010.7
20260506050533 62 351 0.0 0.9 0.00 0.00 0.00 78 1010.5
20260506050220 62 171 0.0 0.9 0.00 0.00 0.00 78 1010.8
20260506045023 63 108 0.0 0.0 0.00 0.00 0.00 77 1010.5
20260506044521 63 34 0.0 0.0 0.00 0.00 0.00 77 1010.3
20260506044208 63 268 0.0 1.7 0.00 0.00 0.00 77 1010.7
20260506044018 63 44 0.0 0.0 0.00 0.00 0.00 77 1010.6
20260506043515 63 123 0.9 1.7 0.00 0.00 0.00 77 1010.2
20260506043232 63 302 0.9 2.6 0.00 0.00 0.00 77 1010.6
20260506043014 63 21 0.0 0.9 0.00 0.00 0.00 77 1010.3
20260506042512 63 342 0.0 0.0 0.00 0.00 0.00 77 1010.4
20260506042154 64 29 0.9 1.7 0.00 0.00 0.00 77 1010.6
20260506042010 64 326 0.0 0.0 0.00 0.00 0.00 77 1010.4
20260506041508 64 115 0.0 0.9 0.00 0.00 0.00 77 1010.1
20260506041117 64 256 0.9 1.7 0.00 0.00 0.00 77 1010.4
20260506041005 64 336 0.9 1.7 0.00 0.00 0.00 77 1009.9
20260506040503 64 334 0.0 0.0 0.00 0.00 0.00 77 1010.0
20260506040143 64 73 0.9 2.6 0.00 0.00 0.00 77 1010.2
20260506035958 64 43 1.7 2.6 0.00 0.00 0.00 78 1009.9
20260506035455 65 11 0.0 0.9 0.00 0.00 0.00 77 1009.9
20260506035208 65 298 0.9 1.7 0.00 0.00 0.00 77 1010.2
20260506034952 65 348 0.9 0.9 0.00 0.00 0.00 77 1009.8
20260506034449 65 48 0.9 0.9 0.00 0.00 0.00 77 1009.8
20260506034234 65 293 0.9 2.6 0.00 0.00 0.00 77 1010.0
20260506033946 65 300 0.9 0.9 0.00 0.00 0.00 77 1009.8
20260506033444 66 29 0.0 0.9 0.00 0.00 0.00 77 1009.5
20260506033217 66 77 0.9 3.5 0.00 0.00 0.00 76 1010.0
20260506032940 66 101 0.9 1.7 0.00 0.00 0.00 76 1009.7
20260506032438 67 332 0.0 0.9 0.00 0.00 0.00 76 1009.7
20260506032222 67 319 0.0 1.7 0.00 0.00 0.00 76 1009.7
20260506031934 67 90 0.0 0.0 0.00 0.00 0.00 76 1009.6
20260506031431 67 310 0.0 0.9 0.00 0.00 0.00 76 1009.5
20260506031145 68 21 0.9 2.6 0.00 0.00 0.00 75 1009.6
20260506030929 68 358 0.0 0.0 0.00 0.00 0.00 75 1009.2
20260506030427 68 298 0.0 0.0 0.00 0.00 0.00 75 1009.0
20260506030107 69 329 0.0 0.9 0.00 0.00 0.00 75 1009.4
20260506025923 69 356 0.0 0.0 0.00 0.00 0.00 75 1009.0
20260506025420 69 168 0.9 0.9 0.00 0.00 0.00 75 1009.1
20260506025236 70 24 0.9 1.7 0.00 0.00 0.00 74 1009.2
20260506024917 70 149 0.9 1.7 0.00 0.00 0.00 74 1008.9
20260506024414 70 62 0.0 0.9 0.00 0.00 0.00 74 1008.7
20260506024159 70 55 0.9 1.7 0.00 0.00 0.00 75 1008.9
20260506023910 70 349 0.0 0.0 0.00 0.00 0.00 75 1008.6
20260506023407 70 280 0.0 0.0 0.00 0.00 0.00 74 1008.5
20260506023224 70 81 0.9 3.5 0.00 0.00 0.00 74 1008.5
20260506022903 70 153 0.9 1.7 0.00 0.00 0.00 74 1008.3
20260506022401 70 329 0.9 1.7 0.00 0.00 0.00 74 1008.1
20260506022207 71 347 0.9 2.6 0.00 0.00 0.00 74 1008.4
20260506021859 71 345 0.0 0.9 0.00 0.00 0.00 74 1008.1
20260506021356 71 134 0.0 0.9 0.00 0.00 0.00 74 1008.0
20260506021212 71 251 0.9 5.2 0.00 0.00 0.00 74 1008.1
20260506020852 71 17 0.0 0.9 0.00 0.00 0.00 74 1007.9
20260506020351 71 80 0.0 0.9 0.00 0.00 0.00 74 1007.7
20260506020155 71 36 0.9 1.7 0.00 0.00 0.00 74 1008.0
20260506015848 71 23 0.0 0.9 0.00 0.00 0.00 74 1007.8
20260506015407 73 352 0.0 0.9 0.00 0.00 0.00 73 1008.0
20260506015345 72 348 1.7 1.7 0.00 0.00 0.00 73 1007.7
20260506014842 73 298 0.9 0.9 0.00 0.00 0.00 72 1007.9
20260506014338 74 227 0.0 0.9 0.00 0.00 0.00 71 1007.2
20260506014207 74 76 0.0 1.7 0.00 0.00 0.00 71 1007.8
20260506013835 74 307 0.0 0.0 0.00 0.00 0.00 71 1007.8
20260506013333 74 70 0.0 0.0 0.00 0.00 0.00 70 1007.2
20260506013210 74 338 0.0 0.9 0.00 0.00 0.00 70 1007.6
20260506012829 74 359 0.0 0.9 0.00 0.00 0.00 70 1007.0
20260506012326 74 0 0.0 0.0 0.00 0.00 0.00 70 1007.2
20260506012133 74 25 0.9 2.6 0.00 0.00 0.00 69 1007.5
20260506011823 74 351 0.9 0.9 0.00 0.00 0.00 69 1007.2
20260506011320 74 98 0.9 0.9 0.00 0.00 0.00 69 1007.1
20260506011159 74 5 0.0 0.9 0.00 0.00 0.00 69 1007.4
20260506010817 74 341 0.0 0.0 0.00 0.00 0.00 69 1007.0
20260506010315 75 354 0.9 0.9 0.00 0.00 0.00 68 1007.1
20260506010121 75 330 0.0 0.9 0.00 0.00 0.00 68 1006.8
20260506005812 75 342 0.0 0.9 0.00 0.00 0.00 68 1006.5
20260506005310 75 340 0.9 1.7 0.00 0.00 0.00 68 1007.0
20260506004805 75 312 0.0 0.9 0.00 0.00 0.00 67 1006.8
20260506004303 75 332 0.0 0.9 0.00 0.00 0.00 67 1006.8
20260506004212 75 352 0.9 1.7 0.00 0.00 0.00 66 1007.1
20260506003759 75 349 0.9 0.9 0.00 0.00 0.00 66 1006.9
20260506003255 76 335 0.9 0.9 0.00 0.00 0.00 67 1006.8
20260506003237 76 26 0.9 2.6 0.00 0.00 0.00 67 1007.0
20260506002751 77 317 0.0 0.9 0.00 0.00 0.00 67 1006.7
20260506002247 77 44 0.0 0.9 0.00 0.00 0.00 67 1006.5
20260506002200 77 3 0.0 1.7 0.00 0.00 0.00 67 1006.9
20260506001743 77 79 0.0 0.9 0.00 0.00 0.00 67 1006.6
20260506001241 78 327 0.0 0.0 0.00 0.00 0.00 66 1006.6
20260506001122 79 354 0.0 0.9 0.00 0.00 0.00 64 1006.7
20260506000738 79 116 0.0 0.0 0.00 0.00 0.00 64 1006.3
20260506000235 79 323 0.0 0.9 0.00 0.00 0.00 64 1006.0
20260506000147 80 264 0.9 0.9 0.00 0.00 0.00 63 1006.4
20260505235732 80 253 0.9 0.9 0.00 0.00 0.00 63 1006.0
20260505235230 80 332 0.0 0.9 0.00 0.00 0.00 63 1005.9
20260505235212 80 359 0.9 1.7 0.00 0.00 0.00 63 1006.3
20260505234727 80 51 0.9 0.9 0.00 0.00 0.00 63 1006.1
20260505234258 81 330 0.9 1.7 0.00 0.00 0.00 61 1006.2
20260505234224 81 284 0.9 0.9 0.00 0.00 0.00 62 1006.2
20260505233720 82 260 0.9 1.7 0.00 0.00 0.00 61 1005.8
20260505233219 82 16 0.9 1.7 0.00 0.00 0.00 60 1005.9
20260505233201 83 323 0.9 1.7 0.00 0.00 0.00 60 1006.2
20260505232715 83 173 0.9 0.9 0.00 0.00 0.00 59 1005.8
20260505232306 85 251 0.9 1.7 0.00 0.00 0.00 56 1005.9
20260505232213 84 32 0.9 0.9 0.00 0.00 0.00 58 1005.7
20260505231709 85 197 0.0 0.9 0.00 0.00 0.00 55 1005.6
20260505231208 86 24 0.0 0.0 0.00 0.00 0.00 51 1005.5
20260505231149 86 319 0.9 1.7 0.00 0.00 0.00 51 1005.6
20260505230706 86 5 0.9 0.9 0.00 0.00 0.00 51 1005.3
20260505230202 86 173 0.9 0.9 0.00 0.00 0.00 50 1005.1
20260505230111 86 321 0.9 0.9 0.00 0.00 0.00 49 1005.3
20260505225659 86 282 0.9 0.9 0.00 0.00 0.00 49 1005.0
20260505225240 87 269 0.9 1.7 0.00 0.00 0.00 48 1005.4
20260505225155 87 7 0.9 0.9 0.00 0.00 0.00 48 1005.2
20260505224651 88 57 0.9 1.7 0.00 0.00 0.00 47 1005.2
20260505224222 89 228 1.7 2.6 0.00 0.00 0.00 47 1005.2
20260505224149 88 255 1.7 1.7 0.00 0.00 0.00 47 1004.9
20260505223647 89 262 0.9 0.9 0.00 0.00 0.00 47 1005.1
20260505223228 90 284 0.0 1.7 0.00 0.00 0.00 53 1004.8
20260505223142 90 333 0.0 0.9 0.00 0.00 0.00 53 1004.6
20260505222638 90 311 0.0 0.0 0.00 0.00 0.00 53 1004.4
20260505222150 90 330 0.9 1.7 0.00 0.00 0.00 53 1004.7
20260505222135 90 298 0.9 1.7 0.00 0.00 0.00 53 1004.5
20260505221632 90 335 0.9 1.7 0.00 0.00 0.00 53 1004.4
20260505221216 90 325 0.0 1.7 0.00 0.00 0.00 53 1004.7
20260505221129 90 359 0.9 0.9 0.00 0.00 0.00 53 1004.3
20260505220627 90 351 0.0 0.9 0.00 0.00 0.00 53 1004.5
20260505220138 91 350 0.0 1.7 0.00 0.00 0.00 53 1004.9
20260505220124 91 354 0.0 0.9 0.00 0.00 0.00 53 1004.5
20260505215621 91 47 0.0 0.9 0.00 0.00 0.00 53 1004.8
20260505215204 90 286 0.9 0.9 0.00 0.00 0.00 53 1004.9
20260505215119 90 296 0.9 0.9 0.00 0.00 0.00 52 1004.6
20260505214617 90 232 0.9 1.7 0.00 0.00 0.00 53 1004.8
20260505214230 90 293 1.7 3.5 0.00 0.00 0.00 53 1004.9
20260505214114 90 275 2.6 3.5 0.00 0.00 0.00 52 1004.6
20260505213611 91 292 0.9 1.7 0.00 0.00 0.00 53 1004.7
20260505213152 89 310 0.9 2.6 0.00 0.00 0.00 54 1005.1
20260505213108 90 302 1.7 2.6 0.00 0.00 0.00 54 1004.7
20260505212603 89 295 0.9 0.9 0.00 0.00 0.00 55 1005.0
20260505212218 89 323 0.9 1.7 0.00 0.00 0.00 54 1005.2
20260505212102 89 315 0.9 1.7 0.00 0.00 0.00 55 1004.7
20260505211558 90 293 1.7 2.6 0.00 0.00 0.00 54 1004.9
20260505211140 89 245 1.7 3.5 0.00 0.00 0.00 54 1005.3
20260505211056 89 275 1.7 2.6 0.00 0.00 0.00 54 1005.0
20260505210552 90 337 0.9 0.9 0.00 0.00 0.00 54 1005.2
20260505210205 90 282 0.9 2.6 0.00 0.00 0.00 56 1005.4
20260505210049 90 246 0.9 1.7 0.00 0.00 0.00 54 1005.0
20260505205547 89 317 0.0 0.0 0.00 0.00 0.00 58 1005.0
20260505205202 89 288 1.7 3.5 0.00 0.00 0.00 58 1005.4
20260505205044 89 271 2.6 3.5 0.00 0.00 0.00 58 1005.3
20260505204541 89 297 0.0 0.9 0.00 0.00 0.00 59 1005.4
20260505204250 89 287 0.9 1.7 0.00 0.00 0.00 58 1005.6
20260505204039 89 272 0.9 1.7 0.00 0.00 0.00 58 1005.1
20260505203535 89 308 1.7 1.7 0.00 0.00 0.00 59 1005.6
20260505203213 89 312 0.9 2.6 0.00 0.00 0.00 59 1005.8
20260505203032 89 283 0.0 0.9 0.00 0.00 0.00 58 1005.5
20260505202528 88 309 0.0 0.0 0.00 0.00 0.00 60 1005.6
20260505202134 89 257 0.9 1.7 0.00 0.00 0.00 59 1005.8
20260505202024 89 331 0.9 0.9 0.00 0.00 0.00 59 1005.4
20260505201522 88 317 1.7 1.7 0.00 0.00 0.00 59 1005.5
20260505201200 88 351 0.9 2.6 0.00 0.00 0.00 59 1005.7
20260505201019 88 324 0.0 0.9 0.00 0.00 0.00 58 1005.4
20260505200517 89 338 0.0 0.0 0.00 0.00 0.00 59 1005.4
20260505200122 88 250 0.9 2.6 0.00 0.00 0.00 59 1006.0
20260505200014 88 115 2.6 2.6 0.00 0.00 0.00 59 1005.5
20260505195509 88 267 0.9 0.9 0.00 0.00 0.00 60 1005.7
20260505195251 88 208 1.7 2.6 0.00 0.00 0.00 59 1005.9
20260505195007 88 188 1.7 1.7 0.00 0.00 0.00 57 1005.5
20260505194504 88 328 0.9 0.9 0.00 0.00 0.00 60 1005.8
20260505194213 88 297 0.9 2.6 0.00 0.00 0.00 58 1006.2
20260505194004 88 223 0.9 1.7 0.00 0.00 0.00 58 1005.8
20260505193502 88 309 0.9 1.7 0.00 0.00 0.00 60 1005.6
20260505193319 88 41 0.9 2.6 0.00 0.00 0.00 60 1006.0
20260505192959 88 107 1.7 2.6 0.00 0.00 0.00 60 1005.6
20260505192458 87 261 0.9 1.7 0.00 0.00 0.00 61 1005.6
20260505192202 87 258 1.7 2.6 0.00 0.00 0.00 62 1006.0
20260505191955 87 321 1.7 2.6 0.00 0.00 0.00 62 1005.8
20260505191453 87 63 1.7 3.5 0.00 0.00 0.00 60 1005.6
20260505191123 86 258 1.7 3.5 0.00 0.00 0.00 63 1006.0
20260505190950 86 315 0.9 1.7 0.00 0.00 0.00 62 1005.6
20260505190445 85 172 0.0 0.9 0.00 0.00 0.00 64 1005.8
20260505190149 86 320 0.9 2.6 0.00 0.00 0.00 63 1006.0
20260505185941 86 300 0.9 0.9 0.00 0.00 0.00 64 1005.8
20260505185438 86 28 0.9 0.9 0.00 0.00 0.00 64 1005.6
20260505185214 85 174 0.0 0.9 0.00 0.00 0.00 64 1006.2
20260505184934 85 342 0.0 0.0 0.00 0.00 0.00 64 1005.8
20260505184431 85 52 0.9 1.7 0.00 0.00 0.00 64 1005.8
20260505184300 85 324 0.9 2.6 0.00 0.00 0.00 65 1006.2
20260505183928 85 341 0.9 0.9 0.00 0.00 0.00 65 1006.1
20260505183424 85 214 1.7 2.6 0.00 0.00 0.00 66 1006.0
20260505183202 84 150 0.9 3.5 0.00 0.00 0.00 67 1006.3
20260505182922 84 337 0.0 0.9 0.00 0.00 0.00 66 1005.9
20260505182419 83 282 0.9 1.7 0.00 0.00 0.00 67 1006.0
20260505182228 84 272 1.7 2.6 0.00 0.00 0.00 67 1006.2
20260505181915 83 278 0.9 0.9 0.00 0.00 0.00 67 1005.9
20260505181412 84 340 0.0 0.9 0.00 0.00 0.00 67 1006.0
20260505181150 84 288 0.9 1.7 0.00 0.00 0.00 66 1006.2
20260505180909 84 320 0.9 0.9 0.00 0.00 0.00 66 1006.1
20260505180405 84 238 2.6 5.2 0.00 0.00 0.00 66 1006.0
20260505180112 84 239 2.6 3.5 0.00 0.00 0.00 65 1006.2
20260505175902 84 347 0.9 1.7 0.00 0.00 0.00 65 1005.9
20260505175358 84 326 0.9 1.7 0.00 0.00 0.00 66 1005.9
20260505175240 83 7 1.7 2.6 0.00 0.00 0.00 67 1006.1
20260505174855 83 343 1.7 2.6 0.00 0.00 0.00 67 1005.7
20260505174353 83 313 0.9 1.7 0.00 0.00 0.00 68 1006.1
20260505174306 83 290 0.9 2.6 0.00 0.00 0.00 67 1006.3
20260505173848 83 223 1.7 1.7 0.00 0.00 0.00 67 1006.0
20260505173344 82 337 1.7 1.7 0.00 0.00 0.00 68 1005.9
20260505173249 82 141 1.7 3.5 0.00 0.00 0.00 69 1006.4
20260505172842 82 152 2.6 3.5 0.00 0.00 0.00 69 1006.0
20260505164528 81 161 1.7 2.6 0.00 0.00 0.00 69 1006.1
20260505164026 81 161 1.7 2.6 0.00 0.00 0.00 69 1006.1
20260505163525 81 17 1.7 1.7 0.00 0.00 0.00 69 1006.0
20260505163307 79 238 1.7 2.6 0.00 0.00 0.00 71 1006.4
20260505163021 79 99 1.7 2.6 0.00 0.00 0.00 72 1006.1
20260505162515 80 222 4.3 6.1 0.00 0.00 0.00 71 1006.0
20260505162147 80 255 1.7 2.6 0.00 0.00 0.00 70 1006.2
20260505162011 80 235 1.7 1.7 0.00 0.00 0.00 70 1005.9
20260505161508 80 340 0.9 0.9 0.00 0.00 0.00 71 1005.7
20260505161212 80 282 0.9 3.5 0.00 0.00 0.00 71 1006.1
20260505161006 80 305 0.0 0.9 0.00 0.00 0.00 71 1005.7
20260505160503 79 332 0.9 0.9 0.00 0.00 0.00 72 1005.8
20260505160117 79 262 1.7 3.5 0.00 0.00 0.00 72 1005.9
20260505153232 78 288 0.9 1.7 0.00 0.00 0.00 74 1005.7
20260505152940 79 271 0.9 1.7 0.00 0.00 0.00 73 1005.3
20260505152437 78 332 0.9 0.9 0.00 0.00 0.00 75 1005.5
20260505152155 77 257 1.7 2.6 0.00 0.00 0.00 75 1006.1
20260505151938 77 79 0.9 1.7 0.00 0.00 0.00 75 1005.7
20260505151433 78 291 0.9 1.7 0.00 0.00 0.00 75 1005.8
20260505151220 78 59 0.9 2.6 0.00 0.00 0.00 75 1006.1
20260505150931 78 122 1.7 2.6 0.00 0.00 0.00 75 1006.0
20260505150428 78 342 1.7 1.7 0.00 0.00 0.00 74 1005.9
20260505150142 78 36 1.7 2.6 0.00 0.00 0.00 74 1006.1
20260505140358 75 266 0.0 0.0 0.00 0.00 0.00 79 1005.7
20260505140209 74 248 0.9 3.5 0.00 0.00 0.00 80 1006.1
20260505130135 73 338 0.9 1.7 0.00 0.00 0.00 83 1005.7
20260505124811 73 348 0.0 0.9 0.00 0.00 0.00 83 1005.3
20260505124308 73 285 0.0 0.9 0.00 0.00 0.00 83 1005.4
20260505124225 73 145 0.9 1.7 0.00 0.00 0.00 83 1005.6
20260505123804 73 97 0.9 1.7 0.00 0.00 0.00 83 1005.4
20260505123301 73 322 0.9 0.9 0.00 0.00 0.00 83 1004.9
20260505123224 73 20 0.0 1.7 0.00 0.00 0.00 83 1005.2
20260505122757 73 338 0.9 0.9 0.00 0.00 0.00 83 1004.9
20260505122255 73 206 1.7 2.6 0.00 0.00 0.00 83 1004.7
20260505122220 73 177 0.9 3.5 0.00 0.00 0.00 82 1005.1
20260505121751 73 270 0.9 1.7 0.00 0.00 0.00 82 1005.0
20260505121248 73 34 0.9 1.7 0.00 0.00 0.00 82 1004.8
20260505121217 73 299 1.7 2.6 0.00 0.00 0.00 82 1005.2
20260505120744 73 301 0.9 0.9 0.00 0.00 0.00 82 1004.9
20260505120240 73 18 0.9 0.9 0.00 0.00 0.00 83 1004.8
20260505120156 73 344 0.9 2.6 0.00 0.00 0.00 83 1005.1
20260505115739 73 50 1.7 2.6 0.00 0.00 0.00 83 1004.8
20260505115237 73 172 3.5 6.1 0.00 0.00 0.00 83 1005.0
20260505115119 73 262 0.9 2.6 0.00 0.00 0.00 83 1005.1
20260505114734 73 316 0.0 0.0 0.00 0.00 0.00 83 1004.7
20260505114247 73 283 0.9 2.6 0.00 0.00 0.00 82 1005.0
20260505114230 73 338 0.0 0.9 0.00 0.00 0.00 82 1004.7